User: anonymous   Login
Location: Mentone
(34.5413°N, 85.5351°W)
Time: 20:50:20
(UTC-06:00)
Language:

A-11 Canister half - Orbit

View from above orbital plane
View from above orbital plane
View from above satellite
View from above satellite

Ground track
Ground track

The orbit data is extracted from the following two-line orbital elements,

1 00053U 60009E   17345.57423362 -.00000084  00000-0  00000+0 0  9997
2 00053  47.2751 212.5546 0096324 246.3979 112.6671 12.17200994556640
Epoch (UTC): 11 December 2017 13:46:53
Eccentricity: 0.0096324
inclination: 47.2751°
perigee height: 1528 km
apogee height: 1681 km
right ascension of ascending node: 212.5546°
argument of perigee: 246.3979°
revolutions per day: 12.17200994
mean anomaly at epoch: 112.6671°
orbit number at epoch: 55664

The dashed part of the orbit path shows where the satellite is in the earth's shadow,  

DLR